This demonstration page uses our WeatherBlox Daily Observations layout. Learn more.

Left ArrowRight Arrow

39.92423, -83.80882

Hourly Observations for February 26, 2019

Temp ( °F °C ) Dew Point ( °F °C ) Humidity (%) Winds ( mph kmh ) Pressure ( in mb ) Visibility ( mi km ) Precip ( " mm )
12:56 am 00:56 Mostly Cloudy 27 -2.8 22 -5.6 81 81 ENE 3 6 30.43 1031 10 16.0934 N/A
1:56 am 01:56 Cloudy 27 -2.8 20 -6.7 75 75 ENE 3 6 30.43 1031 10 16.0934 N/A
2:56 am 02:56 Mostly Cloudy 26 -3.3 20 -6.7 78 78 E 3 6 30.43 1031 10 16.0934 N/A
3:56 am 03:56 Partly Cloudy 26 -3.3 19 -7.2 75 75 NNE 3 6 30.42 1030 10 16.0934 N/A
4:56 am 04:56 Clear 25 -3.9 17 -8.3 72 72 NNE 5 7 30.43 1031 10 16.0934 N/A
5:56 am 05:56 Clear 22 -5.6 17 -8.3 82 82 NE 5 7 30.44 1031 10 16.0934 N/A
6:56 am 06:56 Clear 23 -5 17 -8.3 78 78 ENE 5 7 30.46 1032 10 16.0934 N/A
7:56 am 07:56 Sunny 25 -3.9 20 -6.7 81 81 E 6 9 30.46 1032 10 16.0934 N/A
8:56 am 08:56 Sunny 28 -2.2 22 -5.6 78 78 ESE 8 13 30.47 1032 10 16.0934 N/A
9:56 am 09:56 Sunny 30 -1.1 19 -7.2 64 64 E 7 11 30.48 1032 10 16.0934 N/A
10:56 am 10:56 Sunny 31 -0.6 17 -8.3 56 56 VRB 7 11 30.47 1032 10 16.0934 N/A
11:56 am 11:56 Sunny 34 1.1 16 -8.9 48 48 E 7 11 30.47 1032 10 16.0934 N/A
12:56 pm 12:56 Sunny 35 1.7 17 -8.3 48 48 VRB 5 7 30.44 1031 10 16.0934 N/A
1:56 pm 13:56 Sunny 36 2.2 20 -6.7 52 52 E 9 15 30.41 1030 10 16.0934 N/A
2:56 pm 14:56 Sunny 37 2.8 20 -6.7 50 50 E 7 11 30.4 1029 10 16.0934 N/A
3:56 pm 15:56 Sunny 37 2.8 20 -6.7 50 50 E 8 13 30.4 1030 10 16.0934 N/A
4:56 pm 16:56 Sunny 36 2.2 21 -6.1 55 55 ENE 12 19 30.38 1029 10 16.0934 N/A
5:56 pm 17:56 Sunny 33 0.6 20 -6.7 58 58 NE 12 19 30.4 1029 10 16.0934 N/A
6:56 pm 18:56 Clear 29 -1.7 22 -5.6 75 75 ENE 9 15 30.39 1029 10 16.0934 N/A
7:56 pm 19:56 Clear 27 -2.8 22 -5.6 81 81 ENE 10 17 30.38 1029 10 16.0934 N/A
8:56 pm 20:56 Mostly Clear 27 -2.8 23 -5 85 85 ENE 9 15 30.35 1028 10 16.0934 N/A
9:56 pm 21:56 Cloudy 27 -2.8 23 -5 85 85 ENE 12 19 30.35 1028 10 16.0934 N/A
10:56 pm 22:56 Cloudy 27 -2.8 23 -5 85 85 ENE 10 17 30.33 1027 10 16.0934 N/A
11:56 pm 23:56 Mostly Cloudy 26 -3.3 23 -5 88 88 ENE 10 17 30.32 1027 10 16.0934 N/A

Powered by AerisWeather